Location: Peterborough
(44.3091°N, 78.3197°W)
Time: 01:49:09
(UTC-04:00)

Vanguard 1 Rocket - Pass Details

Date: 25 March 2023
Orbit: 655 x 4220 km, 34.3° (Epoch: 02 June)

Event Time Altitude Azimuth Distance (km) Brightness Sun altitude
Rises 20:06:11 0° 186° (S) 8,297 12.3 -6.9°
Reaches altitude 10° 20:15:11 10° 171° (S) 7,414 11.8 -8.5°
Maximum altitude 20:29:36 19° 136° (SE) 6,382 11.2 -11.0°
Enters shadow 20:38:40 14° 110° (ESE) 6,258 11.0 -12.6°
